Flag for Belgium Weather past 2 weeks in Leuven, Belgium

Now
70 °F

Sunny.


Feels Like: 70 °F
Forecast: 50 / 79 °F
Wind: 7 mph from North

Location: Brussels National Airport

Current Time: Aug 1, 2015 at 8:15:07 PM

Latest Report: Aug 1, 2015 at 7:50 PM


Visibility: 10 mi

Pressure: 30.04 "Hg

Humidity: 40%

Dew point: 45 °F

Location of LeuvenLocation

Historic Weather in Leuven — Graph

°F

Leuven temperature yesterday

Maximum temperature yesterday: 70 °F (at 4:20 PM)
Minimum temperature yesterday: 43 °F (at 4:50 AM)
Average temperature yesterday: 57 °F

Past Weeks' High & Low Weather Summary

 TemperatureHumidityPressure
High82 °F (Jul 17, 6:20 PM)100% (Jul 25, 1:20 PM)30.15 "Hg (Jul 25, 1:20 PM)
Low43 °F (Jul 31, 4:50 AM)33% (Aug 1, 4:20 PM)29.50 "Hg (Jul 25, 3:50 AM)
Average63 °F70%29.90 "Hg
* Reported Jul 17 6:20 PM — Aug 1 6:50 PM, Leuven, Weather by CustomWeather, © 2015

Note: Actual official high and low records may vary slightly from our data, if they occured in-between our weather recording intervals... More about our weather records

Advertising

Leuven weather history for previous 24 hours

 ConditionsComfort  
Time TempWeatherWind HumidityBarometerVisibility
6:50 PM
Sat, Aug 1
72 °FSunny.6 mph38%30.01 "Hg10 mi
6:20 PM72 °FPassing clouds.8 mph38%30.01 "HgN/A
5:50 PM72 °FPassing clouds.8 mph38%30.01 "HgN/A
5:20 PM73 °FPassing clouds.8 mph36%30.01 "HgN/A
4:50 PM73 °FPassing clouds.8 mph36%30.01 "HgN/A
4:20 PM73 °FPassing clouds.7 mph33%30.01 "HgN/A
3:50 PM73 °FSunny.1 mph36%30.01 "Hg10 mi
3:20 PM73 °FSunny.2 mph36%30.01 "Hg10 mi
2:50 PM73 °FSunny.3 mph36%30.01 "Hg10 mi
2:20 PM73 °FSunny.2 mph36%30.01 "Hg10 mi
1:50 PM72 °FSunny.3 mph38%30.01 "Hg10 mi
1:20 PM72 °FPassing clouds.3 mph41%30.01 "HgN/A
12:50 PM72 °FPassing clouds.5 mph36%30.01 "HgN/A
12:20 PM70 °FPassing clouds.6 mph38%30.01 "HgN/A
11:50 AM68 °FPassing clouds.5 mph43%30.01 "HgN/A
11:20 AM68 °FPassing clouds.7 mph43%30.01 "HgN/A
10:50 AM66 °FPassing clouds.5 mph49%30.01 "HgN/A
10:20 AM64 °FPassing clouds.3 mph49%30.01 "HgN/A
9:50 AM63 °FSunny.2 mph56%30.01 "Hg10 mi
9:20 AM59 °FSunny.2 mph63%30.01 "Hg10 mi
8:50 AM57 °FSunny.1 mph72%30.01 "Hg10 mi
8:20 AM54 °FSunny.2 mph77%29.98 "Hg10 mi
7:50 AM54 °FSunny.1 mph82%29.98 "Hg10 mi
7:20 AM50 °FSunny.1 mph88%29.98 "Hg10 mi
6:50 AM46 °FClear.1 mph82%29.98 "Hg10 mi
6:20 AM46 °FClear.1 mph87%29.98 "Hg10 mi
5:50 AM48 °FClear.2 mph87%29.98 "Hg10 mi
4:50 AM48 °FClear.1 mph82%29.98 "Hg10 mi
4:20 AM50 °FClear.2 mph82%29.98 "Hg10 mi
3:50 AM50 °FClear.2 mph82%29.98 "Hg10 mi
3:20 AM50 °FClear.2 mph82%30.01 "Hg10 mi
2:50 AM52 °FClear.3 mph77%30.01 "Hg10 mi
2:20 AM54 °FClear.2 mph72%30.01 "Hg10 mi
1:50 AM54 °FClear.2 mph72%30.01 "Hg10 mi
1:20 AM54 °FClear.2 mph72%30.01 "Hg10 mi
12:50 AM55 °FClear.3 mph67%30.01 "Hg10 mi
12:20 AM55 °FClear.3 mph72%30.01 "Hg10 mi
11:50 PM
Fri, Jul 31
55 °FClear.3 mph72%30.01 "Hg10 mi
11:20 PM55 °FClear.3 mph72%30.01 "Hg10 mi
10:50 PM55 °FClear.3 mph72%30.04 "Hg10 mi
10:20 PM57 °FSunny.3 mph67%30.04 "Hg10 mi
9:50 PM57 °FSunny.5 mph67%30.01 "Hg10 mi
9:20 PM59 °FSunny.3 mph63%30.01 "Hg10 mi
8:50 PM63 °FSunny.5 mph52%30.01 "Hg10 mi
8:20 PM64 °FSunny.6 mph46%30.01 "Hg10 mi
Weather by CustomWeather, © 2015

See weather overviewHow to use our weather pages